Precipitable_Water
2.14 1.92 1.68 1.58 1.56 1.53 1.48 1.41 1.33 1.31 1.31 1.35 1.46 1.61 1.63 1.65 1.67 1.72 1.73 1.74 1.78 1.92 1.90 1.79 1.80 1.72 1.69 1.60 1.32 1.20 1.11 0.95 0.89 1.01 1.15 1.25 1.35 1.47 1.48 1.43 1.35 1.32 1.28
1.88 2.03 1.75 1.63 1.55 1.51 1.49 1.38 1.32 1.33 1.32 1.39 1.48 1.59 1.62 1.65 1.65 1.73 1.80 1.86 1.95 2.04 1.81 1.76 1.80 1.77 1.63 1.33 1.14 1.02 0.90 0.97 1.05 1.17 1.22 1.33 1.41 1.49 1.41 1.37 1.28 1.18 1.13
2.04 1.89 1.77 1.68 1.53 1.48 1.48 1.41 1.34 1.34 1.35 1.39 1.48 1.54 1.58 1.62 1.70 1.79 1.87 1.93 2.01 2.01 1.95 1.91 1.87 1.70 1.48 1.19 1.02 0.95 1.01 1.10 1.12 1.18 1.22 1.30 1.42 1.45 1.39 1.32 1.18 1.11 1.10
1.96 1.93 1.72 1.71 1.61 1.56 1.51 1.48 1.41 1.33 1.35 1.36 1.46 1.49 1.58 1.64 1.76 1.87 1.95 1.91 1.95 1.98 1.94 1.94 1.93 1.62 1.39 1.14 1.05 1.07 1.13 1.13 1.18 1.23 1.21 1.27 1.34 1.42 1.32 1.23 1.12 1.08 1.04
1.89 2.02 1.91 1.74 1.72 1.64 1.58 1.51 1.46 1.43 1.34 1.33 1.42 1.50 1.62 1.71 1.77 1.84 1.94 1.95 1.95 1.92 1.88 1.96 1.76 1.53 1.28 1.09 1.11 1.14 1.17 1.27 1.32 1.28 1.16 1.22 1.31 1.35 1.22 1.14 1.10 1.03 0.98
1.80 1.91 1.76 1.74 1.78 1.65 1.59 1.51 1.47 1.47 1.42 1.34 1.40 1.50 1.59 1.65 1.72 1.82 1.92 1.99 1.98 1.89 1.76 1.64 1.59 1.40 1.18 1.14 1.12 1.12 1.19 1.33 1.45 1.39 1.24 1.25 1.26 1.26 1.14 1.12 1.05 0.98 0.92
1.76 1.78 1.70 1.69 1.68 1.73 1.63 1.56 1.57 1.54 1.50 1.41 1.43 1.49 1.60 1.67 1.73 1.86 1.93 2.00 1.97 1.85 1.67 1.51 1.41 1.31 1.16 1.14 1.08 1.12 1.28 1.38 1.46 1.35 1.26 1.21 1.25 1.21 1.10 1.06 0.99 0.93 0.84
1.68 1.79 1.74 1.67 1.61 1.62 1.63 1.59 1.54 1.56 1.54 1.47 1.49 1.54 1.56 1.63 1.72 1.82 1.95 1.99 1.95 1.87 1.64 1.48 1.39 1.27 1.18 1.09 1.09 1.16 1.25 1.32 1.40 1.36 1.18 1.19 1.26 1.17 1.05 0.95 0.89 0.86 0.76
1.47 1.52 1.69 1.68 1.60 1.55 1.56 1.57 1.52 1.50 1.49 1.44 1.51 1.60 1.60 1.63 1.70 1.81 1.92 1.96 1.98 1.94 1.76 1.49 1.41 1.28 1.14 1.09 1.06 1.11 1.15 1.28 1.35 1.31 1.12 1.21 1.21 1.07 0.94 0.84 0.81 0.80 0.76
1.29 1.35 1.43 1.55 1.59 1.53 1.52 1.56 1.55 1.40 1.42 1.45 1.48 1.55 1.62 1.65 1.71 1.76 1.86 1.89 1.87 1.92 1.93 1.62 1.41 1.29 1.12 1.10 1.07 1.06 1.15 1.28 1.25 1.19 1.10 1.15 1.16 0.96 0.83 0.79 0.79 0.76 0.74
1.17 1.23 1.29 1.34 1.43 1.48 1.50 1.59 1.54 1.53 1.40 1.39 1.47 1.56 1.62 1.70 1.73 1.77 1.87 1.86 1.86 1.86 1.92 1.69 1.47 1.33 1.21 1.13 1.11 1.01 1.16 1.28 1.24 1.19 1.15 1.14 1.07 0.88 0.78 0.80 0.77 0.73 0.74
1.03 1.11 1.17 1.21 1.29 1.35 1.32 1.37 1.56 1.62 1.67 1.58 1.49 1.54 1.58 1.69 1.78 1.87 1.89 1.89 1.94 1.87 1.94 1.76 1.48 1.44 1.32 1.17 1.14 0.98 1.29 1.35 1.37 1.22 1.17 1.10 1.02 0.85 0.78 0.76 0.74 0.76 0.75
0.87 1.01 1.10 1.14 1.18 1.28 1.39 1.38 1.38 1.52 1.61 1.70 1.68 1.68 1.73 1.77 1.79 1.84 1.85 1.91 1.96 1.97 1.92 1.84 1.59 1.52 1.42 1.25 1.15 1.13 1.32 1.37 1.31 1.22 1.15 1.08 0.98 0.84 0.77 0.75 0.77 0.74 0.76
0.79 0.88 0.96 1.07 1.18 1.17 1.26 1.33 1.41 1.39 1.52 1.59 1.71 1.77 1.80 1.79 1.75 1.76 1.77 1.85 1.93 1.95 1.86 1.86 1.65 1.50 1.45 1.31 1.21 1.28 1.35 1.35 1.34 1.25 1.13 1.06 0.94 0.82 0.76 0.76 0.77 0.75 0.76
0.64 0.83 0.92 0.97 1.13 1.13 1.16 1.30 1.39 1.46 1.44 1.57 1.65 1.71 1.74 1.76 1.71 1.73 1.75 1.83 1.83 1.86 1.92 1.83 1.70 1.48 1.45 1.38 1.25 1.30 1.40 1.34 1.32 1.21 1.14 1.04 0.91 0.81 0.76 0.75 0.80 0.77 0.78
0.46 0.65 0.83 0.88 0.97 1.09 1.12 1.18 1.23 1.39 1.56 1.57 1.65 1.70 1.76 1.80 1.72 1.70 1.69 1.81 1.80 1.84 1.91 1.84 1.77 1.52 1.44 1.43 1.38 1.29 1.31 1.36 1.33 1.24 1.13 0.99 0.87 0.85 0.79 0.78 0.79 0.78 0.81
0.39 0.47 0.61 0.80 0.89 0.97 1.01 1.08 1.15 1.22 1.34 1.53 1.64 1.72 1.77 1.81 1.79 1.71 1.69 1.76 1.78 1.84 1.85 1.85 1.89 1.64 1.46 1.37 1.38 1.32 1.32 1.38 1.32 1.24 1.18 0.98 0.87 0.85 0.80 0.79 0.78 0.80 0.82
0.36 0.41 0.48 0.59 0.74 0.78 0.86 0.95 1.02 1.10 1.18 1.34 1.50 1.63 1.70 1.70 1.78 1.76 1.69 1.71 1.77 1.77 1.78 1.78 1.85 1.69 1.53 1.29 1.28 1.31 1.41 1.42 1.35 1.25 1.21 1.12 0.90 0.80 0.79 0.75 0.74 0.79 0.80
0.36 0.39 0.41 0.49 0.57 0.65 0.67 0.75 0.83 0.90 1.04 1.15 1.33 1.49 1.65 1.71 1.72 1.68 1.70 1.73 1.77 1.75 1.71 1.73 1.75 1.74 1.56 1.40 1.44 1.35 1.43 1.43 1.38 1.31 1.17 1.14 1.02 0.84 0.76 0.76 0.73 0.76 0.76
0.36 0.39 0.39 0.44 0.49 0.55 0.62 0.62 0.68 0.74 0.87 1.01 1.13 1.29 1.50 1.61 1.69 1.67 1.69 1.69 1.74 1.71 1.68 1.68 1.78 1.75 1.66 1.52 1.41 1.51 1.51 1.49 1.42 1.38 1.27 1.17 1.12 0.97 0.80 0.68 0.68 0.68 0.72
0.35 0.37 0.38 0.39 0.43 0.48 0.49 0.51 0.56 0.60 0.70 0.83 0.97 1.10 1.31 1.46 1.60 1.64 1.59 1.61 1.71 1.68 1.67 1.72 1.73 1.68 1.63 1.63 1.42 1.41 1.47 1.54 1.50 1.43 1.36 1.27 1.13 1.08 0.91 0.75 0.67 0.62 0.67
0.31 0.34 0.39 0.39 0.41 0.43 0.46 0.49 0.53 0.59 0.65 0.76 0.85 0.99 1.13 1.30 1.44 1.47 1.54 1.46 1.50 1.61 1.65 1.65 1.67 1.62 1.60 1.63 1.44 1.30 1.26 1.38 1.44 1.43 1.39 1.31 1.20 1.12 1.04 0.82 0.71 0.61 0.64
0.29 0.31 0.35 0.41 0.42 0.44 0.45 0.45 0.46 0.53 0.58 0.63 0.73 0.86 0.98 1.15 1.30 1.36 1.43 1.47 1.45 1.49 1.51 1.62 1.67 1.60 1.45 1.58 1.57 1.38 1.25 1.19 1.32 1.43 1.35 1.35 1.29 1.12 1.09 1.00 0.75 0.64 0.66
0.27 0.31 0.36 0.38 0.42 0.44 0.45 0.42 0.41 0.41 0.42 0.52 0.63 0.77 0.88 1.02 1.13 1.26 1.36 1.48 1.47 1.43 1.44 1.50 1.60 1.59 1.58 1.47 1.57 1.57 1.51 1.41 1.25 1.18 1.42 1.43 1.37 1.23 1.11 1.05 0.91 0.71 0.69
0.27 0.29 0.34 0.38 0.38 0.42 0.43 0.44 0.42 0.40 0.43 0.50 0.53 0.65 0.78 0.89 1.03 1.12 1.23 1.33 1.45 1.48 1.46 1.48 1.57 1.55 1.64 1.57 1.51 1.52 1.49 1.48 1.45 1.30 1.21 1.33 1.41 1.34 1.24 1.13 1.03 0.87 0.72
0.27 0.28 0.31 0.34 0.37 0.38 0.41 0.42 0.42 0.41 0.41 0.43 0.46 0.51 0.65 0.77 0.92 1.05 1.12 1.23 1.32 1.47 1.50 1.48 1.53 1.55 1.54 1.60 1.56 1.53 1.47 1.41 1.37 1.36 1.29 1.31 1.28 1.39 1.35 1.23 1.13 1.01 0.87
Wind_Speed
3 10 9 8 6 5 4 4 4 3 4 5 6 6 7 8 8 9 10 10 12 14 16 15 14 12 12 11 11 12 12 13 13 13 13 13 13 13 14 13 13 12 12
12 6 7 6 5 5 4 3 4 4 5 6 6 7 7 8 9 10 9 10 12 13 15 14 14 13 13 12 13 14 14 14 13 13 13 13 12 12 13 12 11 11 10
9 9 7 6 6 5 4 4 3 4 5 6 7 7 8 9 9 9 9 10 11 13 14 15 15 14 14 14 15 15 14 14 14 14 13 12 12 12 11 11 10 10 10
14 5 5 5 5 5 4 4 3 4 5 6 6 8 9 9 9 9 9 7 8 12 14 19 17 15 16 16 16 15 14 14 14 13 12 11 11 11 10 10 10 9 10
8 2 1 4 5 5 5 4 4 4 5 6 7 8 9 10 10 9 9 8 9 14 15 18 20 18 18 17 16 16 15 14 14 12 12 11 11 10 9 9 9 9 9
9 6 4 2 4 5 5 5 5 5 5 6 7 9 10 10 10 9 10 9 12 16 17 18 19 19 18 18 17 16 15 14 12 13 11 11 10 9 9 10 9 9 9
11 8 7 6 4 5 6 7 7 7 7 7 8 10 11 11 10 10 12 11 14 16 18 17 18 18 18 18 17 16 14 12 9 11 9 9 9 8 9 9 9 8 9
13 9 8 7 6 6 6 8 8 7 7 8 9 10 11 12 12 12 13 12 14 15 17 17 17 18 18 18 17 15 13 9 12 10 9 9 9 8 8 9 9 9 10
17 14 10 8 7 7 7 9 9 9 9 9 10 12 12 13 13 13 14 13 13 16 18 17 18 18 18 18 16 15 12 9 12 9 9 9 8 8 9 10 10 10 10
16 14 14 10 9 9 9 9 10 11 11 10 11 12 13 14 14 15 16 14 16 17 19 18 19 19 18 17 15 15 13 10 9 9 9 9 8 8 10 12 11 11 10
15 15 14 15 12 11 12 10 11 11 12 12 12 13 14 14 15 16 16 14 17 20 22 19 20 20 19 17 16 15 13 10 9 11 10 9 8 9 11 12 12 11 10
17 17 15 15 15 13 14 13 12 10 12 13 13 13 14 15 16 16 17 15 14 21 23 21 22 22 20 18 17 16 14 10 12 11 10 9 9 10 12 13 12 11 11
17 17 17 16 18 16 15 15 14 14 12 12 13 14 15 15 15 16 16 16 14 17 27 23 23 23 21 19 18 17 14 12 12 11 10 10 10 12 13 13 12 11 11
19 18 20 18 17 15 13 15 16 15 15 13 13 14 15 16 16 16 17 18 16 17 24 26 25 24 22 20 19 18 15 14 13 12 11 11 11 12 14 14 13 12 11
20 19 20 18 18 15 15 15 15 16 17 16 14 14 15 16 16 16 17 18 18 18 24 28 27 25 24 21 21 19 16 15 14 12 12 12 12 13 14 14 14 12 12
20 19 20 18 20 21 21 17 16 16 15 16 16 15 16 16 17 17 16 17 15 15 23 28 27 27 25 23 21 19 18 16 15 13 12 13 13 14 15 15 15 13 13
22 21 21 21 19 18 19 20 18 19 18 15 16 17 15 16 17 17 16 17 16 15 23 27 26 27 27 25 22 21 20 18 16 15 13 14 15 15 16 16 16 15 14
24 23 23 22 22 21 21 21 21 20 20 19 17 16 17 18 19 18 16 17 16 17 18 27 28 28 27 27 25 22 21 19 18 17 15 14 15 16 17 18 17 16 15
25 25 25 25 24 24 24 23 22 22 22 21 20 18 17 17 18 19 17 17 18 18 19 25 30 29 28 27 25 24 23 21 20 18 18 16 16 17 18 19 19 18 17
27 26 27 27 27 26 26 25 25 23 24 23 22 21 20 18 19 19 18 17 18 18 19 20 24 30 28 28 26 24 24 23 22 20 20 18 17 18 19 20 21 20 19
28 27 28 28 28 28 28 27 27 27 26 26 25 24 22 21 21 20 19 18 18 19 20 22 23 27 29 30 27 26 24 23 24 22 22 20 20 20 20 22 21 22 21
29 29 29 28 28 29 29 29 29 29 28 28 27 26 25 23 23 21 22 21 20 20 20 20 20 29 30 30 29 29 26 25 26 24 23 22 22 21 21 23 23 24 23
29 30 30 30 29 29 29 30 30 30 29 29 28 28 27 26 25 24 24 24 23 22 21 23 24 24 23 30 34 29 27 26 26 26 25 24 24 24 23 23 24 25 26
28 30 31 31 31 30 30 30 30 30 30 30 30 30 29 29 28 27 25 28 26 25 24 24 24 25 25 26 30 36 33 29 27 26 27 27 26 26 26 25 26 27 27
27 28 30 31 31 31 31 30 30 31 31 31 31 31 30 30 29 28 27 25 30 27 26 26 24 24 26 27 27 31 33 33 30 28 28 29 29 29 28 28 27 28 29
25 27 28 30 31 32 32 31 31 31 32 32 31 31 31 31 31 30 28 28 27 29 28 29 27 26 24 27 28 30 33 32 33 32 29 29 30 32 32 30 29 29 30
Wind_Direction
169 157 163 162 158 161 157 154 155 161 169 168 165 160 160 161 162 164 164 165 164 164 166 166 167 166 163 156 148 146 143 138 133 129 125 121 118 115 114 112 109 107 105
248 181 183 164 160 162 162 152 150 159 168 173 172 169 164 164 165 164 166 170 175 176 169 172 170 166 162 157 151 144 140 138 135 131 127 124 122 119 118 114 111 109 105
294 186 175 170 172 176 178 170 156 166 170 176 180 178 173 170 172 170 170 171 179 178 191 179 169 166 163 158 152 146 143 140 137 134 131 128 124 122 120 116 113 110 107
22 132 172 182 181 187 191 189 177 180 187 187 190 185 184 180 176 173 172 171 184 186 185 189 177 165 162 157 153 149 145 142 140 137 135 134 130 128 124 120 117 113 110
288 348 189 203 200 201 204 206 200 198 200 204 198 193 190 186 185 188 188 190 183 168 161 157 163 164 159 156 153 150 147 144 140 138 139 137 137 133 130 126 122 116 112
275 281 265 254 239 225 221 219 217 215 215 212 205 200 198 199 201 203 194 185 171 161 160 156 157 160 159 158 156 152 151 148 144 137 134 138 139 136 133 131 127 120 116
266 279 257 249 257 248 237 231 231 229 231 225 215 211 209 210 210 206 196 189 177 164 163 161 162 162 162 161 159 157 156 155 159 153 150 151 145 141 142 141 135 127 124
256 263 250 242 250 250 248 241 238 238 236 233 226 220 217 216 217 211 201 194 188 176 171 170 169 167 166 166 166 165 162 162 161 158 155 155 154 151 151 148 142 135 131
261 267 241 240 246 251 248 248 243 242 241 239 231 228 225 223 219 212 204 202 193 189 180 177 176 173 172 171 172 172 170 161 159 160 156 159 158 156 157 155 148 141 135
262 259 254 256 254 250 253 252 250 246 243 241 236 231 228 224 219 215 212 214 209 201 192 186 183 181 178 178 179 179 178 173 172 172 167 164 161 159 158 155 151 146 140
264 262 261 256 254 255 252 256 253 248 243 240 236 231 228 224 221 220 219 220 217 209 200 194 191 188 185 185 186 185 182 184 183 171 168 166 166 161 158 156 153 148 145
264 265 260 257 257 257 254 253 252 251 245 240 234 230 227 224 224 225 225 225 224 208 202 199 196 193 191 192 192 190 190 194 177 178 177 176 173 167 164 161 159 154 151
266 261 258 260 261 253 252 249 248 247 249 245 238 232 227 225 225 225 228 224 222 220 210 202 198 196 196 197 196 194 197 196 187 186 185 181 177 173 169 166 164 160 157
266 264 261 267 241 246 249 248 249 246 247 247 246 236 229 226 226 229 233 228 225 228 205 204 200 200 200 200 199 200 203 195 196 192 192 189 183 179 176 174 171 167 162
269 266 263 257 233 246 251 252 250 248 247 249 247 241 233 228 229 231 235 229 237 230 213 208 204 204 203 203 201 204 204 198 196 196 196 192 188 186 183 180 177 174 170
269 265 260 255 249 255 247 251 249 247 249 250 247 245 237 231 230 232 236 232 228 228 218 206 204 206 206 203 203 203 202 199 201 199 200 196 194 191 188 186 184 181 177
266 263 261 255 253 255 247 248 249 248 248 251 248 246 241 234 232 234 236 232 234 236 217 208 205 207 207 205 205 205 206 205 207 204 202 200 199 196 195 192 191 189 185
266 262 260 257 253 253 249 249 250 251 247 247 252 250 246 239 234 234 236 235 233 231 218 207 209 209 208 209 209 209 208 210 209 207 207 205 204 203 201 200 198 195 193
265 262 259 256 255 254 251 251 251 250 245 246 246 248 246 245 237 233 239 237 237 229 226 224 214 210 208 208 210 212 213 213 212 214 212 211 208 207 206 205 203 202 200
264 261 259 256 256 254 252 251 250 249 247 245 246 248 248 248 241 236 238 237 232 225 225 220 215 213 211 210 210 210 213 217 216 218 214 215 215 212 211 209 208 208 206
264 262 259 258 256 253 252 252 251 250 249 247 246 247 246 247 244 239 238 239 234 231 230 227 220 216 214 211 212 216 219 219 219 221 220 221 220 218 216 213 213 213 212
264 262 259 258 256 253 252 250 250 249 248 247 247 246 245 246 244 247 239 237 235 233 229 228 227 218 221 221 220 220 222 223 223 223 223 223 222 221 220 218 218 217 216
264 262 259 256 255 252 251 250 250 248 247 246 246 245 245 246 246 246 244 239 239 237 232 234 230 225 230 227 225 224 223 223 221 225 227 226 226 225 224 223 223 220 219
265 261 258 255 254 252 251 250 250 248 248 247 246 246 245 246 246 246 248 239 239 239 239 233 231 233 232 231 230 227 227 228 226 227 228 231 229 227 228 228 226 224 222
268 263 259 255 253 252 250 249 248 247 248 247 246 247 245 245 245 245 245 243 238 239 239 233 239 237 237 233 232 227 228 229 230 233 235 234 231 231 231 230 228 226 225
270 267 261 257 253 251 249 249 248 248 248 247 247 246 246 245 243 244 245 243 241 240 241 240 242 241 242 236 232 236 230 230 233 232 236 233 232 235 232 231 230 230 229